Regional Weather Roundup
Issued by NWS

Home | Current Version | Previous Version | Text Only | Print | Product List | Glossary On
Versions: 1 2 3 4 5 6 7 8 9 10 11 12 13 14 15 16 17 18 19 20 21 22 23 24 25 26 27 28 29 30 31 32 33 34 35 36 37 38 39 40 41 42 43 44 45 46 47 48 49 50
000
ASUS43 KDTX 161610
RWRMI
MICHIGAN HOURLY REGIONAL WEATHER ROUNDUP
NATIONAL WEATHER SERVICE DETROIT/PONTIAC MI
1200 PM EDT TUE SEP 16 2014

NOTE: "FAIR" INDICATES FEW OR NO CLOUDS BELOW 12,000 FEET WITH NO
SIGNIFICANT WEATHER AND/OR OBSTRUCTION TO VISIBILITY.

MIZ047>049-052>055-059>063-066>070-074>076-081>083-161700-
SOUTHEAST LOWER MICHIGAN

CITY           SKY/WX    TMP DP  RH WIND       PRES   REMARKS
ADRIAN         PTSUNNY   58  47  66 NW6       30.18F
ALMA           PTSUNNY   56  54  94 S7        30.16F
ANN ARBOR      SUNNY     60  43  53 VRB3      30.16F
BAD AXE        PTSUNNY   57  54  90 W7        30.14F
CARO           MOSUNNY   56  52  87 SW3       30.15S
DETROIT CITY   SUNNY     64  43  46 N6        30.15F
DETROIT        MOSUNNY   60  45  57 VRB5      30.16F
FLINT          MOSUNNY   60  48  64 W7        30.16F
GROSSE ILE     SUNNY     61  46  59 NW5       30.15S
HILLSDALE      MOSUNNY   60  46  60 N3        30.17F
HOWELL         SUNNY     58  46  63 W6        30.17S

CITY           SKY/WX    TMP DP  RH WIND       PRES   REMARKS
JACKSON        SUNNY     60  46  59 VRB5      30.17F
LAMBERTVILLE   MOSUNNY   61  46  59 CALM      30.17F
LANSING        MOSUNNY   57  50  77 VRB3      30.17F
LAPEER         PTSUNNY   56  48  73 NW3       30.16F
MASON          SUNNY     58  45  61 NW5       30.17F
MONROE         MOSUNNY   61  48  63 NW6       30.15S
MT. CLEMENS    MOSUNNY   60  48  64 NW8       30.14F
PONTIAC        MOSUNNY   59  47  64 NW6       30.15F
PORT HOPE        N/A     60  46  59 CALM      30.12F
PORT HURON     MOSUNNY   59  50  72 W7        30.14F
TRI CITIES     MOSUNNY   61  49  64 SW7       30.15F
TROY           MOSUNNY   61  43  51 NW7       30.17S
SAGINAW HB     SUNNY     55  54  94 SW5       30.14F
$$
MIZ043>046-050>051-056>058-064>065-071>073-077>080-161700-
SOUTHWEST LOWER MICHIGAN

CITY           SKY/WX    TMP DP  RH WIND       PRES   REMARKS
BATTLE CREEK   MOSUNNY   61  47  59 N6        30.18F
BENTON HARBOR  MOSUNNY   59  49  69 W5        30.19S
BIG RAPIDS     PTSUNNY   58  54  85 W7        30.14F
COLDWATER      SUNNY     60  46  57 CALM      30.17F
FREMONT        FAIR      57  46  68 W8        30.17S
HOLLAND        MOSUNNY   63  51  65 VRB7      30.18F
GRAND RAPIDS   PTSUNNY   61  51  70 NW6       30.17F
IONIA          PTSUNNY   60  52  74 W6        30.16F
KALAMAZOO      MOSUNNY   63  45  51 VRB5      30.18F
LUDINGTON      SUNNY     57  43  60 W9        30.17S
MARSHALL       SUNNY     59  45  60 CALM      30.17F
MOUNT PLEASANT PTSUNNY   57  53  85 W3        30.14F
MUSKEGON       MOSUNNY   61  43  51 NW10      30.18F
SOUTH HAVEN    MOSUNNY   64  51  64 W6        30.19S
$$
MIZ016>042-161700-
NORTHERN LOWER MICHIGAN

CITY           SKY/WX    TMP DP  RH WIND       PRES   REMARKS
ALPENA         PTSUNNY   59  44  57 W12G18    30.09F
BEAVER ISLAND  SUNNY     60  47  62 W13G21    30.09F
BELLAIRE       MOSUNNY   59  40  49 W6        30.12F
CADILLAC       PTSUNNY   55  47  75 W10       30.13S
CHARLEVOIX     SUNNY     60  45  58 W14G20    30.14S
FRANKFORT      SUNNY     60  45  56 W9        30.14F
GAYLORD        MOSUNNY   55  42  61 W10       30.10F
GRAYLING       PTSUNNY   54  50  87 SW8       30.12F
HARBOR SPRINGS SUNNY     61  43  51 SW8       30.10F
HOUGHTON LAKE  CLOUDY    51  49  92 SW6       30.13F
MANISTEE       SUNNY     57  39  51 W9        30.16F
OSCODA         SUNNY     59  46  61 W7        30.11F
PELLSTON       MOSUNNY   60  42  51 SW9       30.09F
ROGERS CITY    SUNNY     59  45  58 W9        30.10F
TRAVERSE CITY  MOSUNNY   59  39  47 W9G17     30.12F
$$
MIZ007>008-015-161700-
EASTERN UPPER MICHIGAN

CITY           SKY/WX    TMP DP  RH WIND       PRES   REMARKS
KINROSS        MOSUNNY   59  43  55 SW9G16    30.06F
MACKINAC ISLAN SUNNY     58  44  60 SW9G17    30.08F
NEWBERRY       SUNNY     59  41  50 W10       30.06S
MUNISING         N/A     63  40  42 SW8       30.03F
$$
MIZ004>006-011>014-085-161700-
CENTRAL UPPER MICHIGAN

CITY           SKY/WX    TMP DP  RH WIND       PRES   REMARKS
MANISTIQUE     SUNNY     59  42  51 W9        30.07F
ESCANABA       SUNNY     61  39  44 W13       30.08F
MENOMINEE      SUNNY     59  39  47 W7        30.11F
SAWYER-GWINN   SUNNY     57  41  54 SW14      30.04F
$$
MIZ001>003-009>011-084-161700-
WESTERN UPPER MICHIGAN

CITY           SKY/WX    TMP DP  RH WIND       PRES   REMARKS
IRON MOUNTAIN  SUNNY     60  39  45 W13       30.07F
HOUGHTON       SUNNY     55  40  56 W18G26    29.99F
COPPER HARBOR    N/A     59  41  51 NW10G22   29.96F
IRONWOOD       SUNNY     59  39  47 W16G24    30.04S
$$

ABBREVIATIONS USED IN REMARKS
   TC - TEMPERATURE IN CELSIUS
  WCI - WIND CHILL INDEX
   HX - HEAT INDEX
  VSB - VISIBILITY




USA.gov is the U.S. government's official web portal to all federal, state and local government web resources and services.